TimeEDT,TemperatureF,Dew PointF,Humidity,Sea Level PressureIn,VisibilityMPH,Wind Direction,Wind SpeedMPH,Gust SpeedMPH,PrecipitationIn,Events,Conditions,WindDirDegrees,DateUTC
12:33 AM,66.2,64.4,94,29.87,2.0,Calm,Calm,-,N/A,,Clear,0,2012-09-06 04:33:00
12:48 AM,66.2,64.4,94,29.87,1.5,West,3.5,-,N/A,,Clear,270,2012-09-06 04:48:00
12:53 AM,66.0,64.9,96,29.85,2.0,Calm,Calm,-,N/A,,Clear,0,2012-09-06 04:53:00
12:59 AM,64.4,62.6,94,29.87,0.8,Calm,Calm,-,N/A,,Clear,0,2012-09-06 04:59:00
1:06 AM,64.4,64.4,100,29.87,0.5,South,4.6,-,N/A,Fog,Fog,180,2012-09-06 05:06:00
1:28 AM,64.4,64.4,100,29.87,0.2,SE,5.8,-,N/A,Fog,Fog,140,2012-09-06 05:28:00
1:38 AM,66.2,64.4,94,29.87,1.0,SSE,5.8,-,N/A,,Mist,150,2012-09-06 05:38:00
1:41 AM,66.2,64.4,94,29.87,2.0,SSE,4.6,-,N/A,,Mostly Cloudy,150,2012-09-06 05:41:00
1:43 AM,66.2,64.4,94,29.87,3.0,SSE,3.5,-,N/A,,Scattered Clouds,160,2012-09-06 05:43:00
1:53 AM,64.9,64.9,100,29.86,3.0,South,4.6,-,N/A,,Partly Cloudy,170,2012-09-06 05:53:00
2:07 AM,64.4,64.4,100,29.88,1.8,SSE,4.6,-,0.01,,Partly Cloudy,150,2012-09-06 06:07:00
2:13 AM,64.4,64.4,100,29.88,0.2,SSE,3.5,-,0.01,Fog,Fog,160,2012-09-06 06:13:00
2:53 AM,66.0,64.9,96,29.87,0.2,South,4.6,-,0.01,Fog,Fog,170,2012-09-06 06:53:00
3:53 AM,66.0,66.0,100,29.87,0.2,South,3.5,-,N/A,Fog,Fog,170,2012-09-06 07:53:00
4:38 AM,66.2,64.4,94,29.89,0.5,South,3.5,-,N/A,Fog,Fog,190,2012-09-06 08:38:00
4:53 AM,64.9,64.9,100,29.88,0.8,South,4.6,-,N/A,,Mist,190,2012-09-06 08:53:00
5:08 AM,64.4,64.4,100,29.89,0.2,SSW,4.6,-,N/A,Fog,Fog,200,2012-09-06 09:08:00
5:28 AM,64.4,64.4,100,29.90,0.2,Calm,Calm,-,N/A,Fog,Fog,0,2012-09-06 09:28:00
5:48 AM,66.2,64.4,94,29.90,0.5,Calm,Calm,-,N/A,Fog,Fog,0,2012-09-06 09:48:00
5:53 AM,66.0,64.9,96,29.89,0.5,Calm,Calm,-,N/A,Fog,Fog,0,2012-09-06 09:53:00
6:17 AM,66.2,66.2,100,29.91,0.2,Calm,Calm,-,N/A,Fog,Fog,0,2012-09-06 10:17:00
6:53 AM,66.9,66.0,97,29.90,0.2,WSW,3.5,-,N/A,Fog,Fog,250,2012-09-06 10:53:00
7:53 AM,66.9,66.0,97,29.92,0.2,SSW,3.5,-,N/A,Fog,Fog,200,2012-09-06 11:53:00
8:26 AM,68.0,66.2,94,29.94,0.5,SW,3.5,-,0.01,Fog,Fog,220,2012-09-06 12:26:00
8:33 AM,68.0,66.2,94,29.94,0.2,WSW,4.6,-,0.01,Fog,Fog,240,2012-09-06 12:33:00
8:45 AM,68.0,66.2,94,29.94,0.5,SW,4.6,-,0.01,Fog,Fog,230,2012-09-06 12:45:00
8:53 AM,68.0,66.9,96,29.93,0.5,Calm,Calm,-,0.01,Fog,Fog,0,2012-09-06 12:53:00
9:53 AM,69.1,68.0,96,29.95,0.8,Calm,Calm,-,N/A,,Overcast,0,2012-09-06 13:53:00
10:09 AM,69.8,68.0,94,29.96,1.0,Calm,Calm,-,N/A,,Overcast,0,2012-09-06 14:09:00
10:53 AM,70.0,69.1,97,29.96,1.5,SW,3.5,-,N/A,,Overcast,220,2012-09-06 14:53:00
11:11 AM,69.8,69.8,100,29.97,2.0,SW,3.5,-,N/A,,Overcast,220,2012-09-06 15:11:00
11:30 AM,71.6,69.8,94,29.97,3.0,SW,3.5,-,N/A,,Overcast,220,2012-09-06 15:30:00
11:53 AM,71.1,70.0,96,29.96,4.0,Calm,Calm,-,N/A,,Overcast,0,2012-09-06 15:53:00
12:31 PM,75.2,71.6,89,29.96,6.0,SSW,4.6,-,N/A,,Haze,210,2012-09-06 16:31:00
12:53 PM,78.1,70.0,76,29.94,8.0,Variable,5.8,-,N/A,,Scattered Clouds,0,2012-09-06 16:53:00
1:53 PM,81.0,71.1,72,29.93,10.0,SSW,6.9,-,N/A,,Clear,200,2012-09-06 17:53:00
2:16 PM,82.4,71.6,70,29.95,10.0,WSW,5.8,-,N/A,,Mostly Cloudy,240,2012-09-06 18:16:00
2:39 PM,82.4,69.8,66,29.94,10.0,SSW,5.8,-,N/A,,Partly Cloudy,200,2012-09-06 18:39:00
2:53 PM,82.9,71.1,67,29.92,10.0,South,4.6,-,N/A,,Scattered Clouds,190,2012-09-06 18:53:00
3:53 PM,84.9,71.1,63,29.91,10.0,South,10.4,-,N/A,,Partly Cloudy,190,2012-09-06 19:53:00
4:53 PM,84.9,70.0,61,29.88,10.0,South,10.4,-,N/A,,Clear,180,2012-09-06 20:53:00
5:53 PM,84.9,70.0,61,29.86,10.0,South,10.4,-,N/A,,Partly Cloudy,180,2012-09-06 21:53:00
6:53 PM,84.0,70.0,63,29.88,10.0,South,8.1,-,N/A,,Clear,190,2012-09-06 22:53:00
7:53 PM,81.0,71.1,72,29.89,10.0,South,8.1,-,N/A,,Clear,190,2012-09-06 23:53:00
8:53 PM,78.1,71.1,79,29.90,10.0,South,5.8,-,N/A,,Clear,190,2012-09-07 00:53:00
9:53 PM,75.0,70.0,84,29.90,10.0,South,4.6,-,N/A,,Clear,180,2012-09-07 01:53:00
10:53 PM,73.9,70.0,87,29.90,10.0,Calm,Calm,-,N/A,,Clear,0,2012-09-07 02:53:00
11:53 PM,72.0,69.1,91,29.89,8.0,Calm,Calm,-,N/A,,Clear,0,2012-09-07 03:53:00